Flag for Bulgaria Weather past 2 weeks in Plovdiv, Bulgaria

Now
88 °F

Sunny.


Feels Like: 91 °F
Forecast: 62 / 87 °F
Wind: 3 mph from North

Location: Plovdiv Airport

Current Time: Aug 27, 2014 at 6:02:11 PM

Latest Report: Aug 27, 2014 at 5:00 PM


Visibility: 10 mi

Pressure: 29.77 "Hg

Humidity: 52%

Dew point: 68 °F

Location of PlovdivLocation

Historic Weather in Plovdiv — Graph

°F

Plovdiv temperature yesterday

Maximum temperature yesterday: 84 °F (at 5:00 PM)
Minimum temperature yesterday: 63 °F (at 6:00 AM)
Average temperature yesterday: 72 °F

Past Weeks' High & Low Weather Summary

 TemperatureHumidityPressure
High95 °F (Aug 15, 4:00 PM)100% (Aug 14, 6:00 AM)30.09 "Hg (Aug 14, 6:00 AM)
Low55 °F (Aug 19, 6:00 AM)36% (Aug 12, 5:00 PM)29.74 "Hg (Aug 15, 4:00 PM)
Average75 °F71%29.94 "Hg
* Reported Aug 12 4:00 PM — Aug 27 4:00 PM, Plovdiv, Weather by CustomWeather, © 2014

Note: Actual official high and low records may vary slightly from our data, if they occured in-between our weather recording intervals... More about our weather records

Advertising

Plovdiv weather history for previous 24 hours

 ConditionsComfort  
Time TempWeatherWind HumidityBarometerVisibility
4:00 PM
Aug 27
88 °FSunny.3 mph55%29.80 "Hg10 mi
3:00 PM86 °FSunny.3 mph55%29.83 "Hg10 mi
2:00 PM84 °FSunny.3 mph55%29.83 "Hg10 mi
1:00 PM82 °FSunny.1 mph58%29.86 "Hg10 mi
12:00 PM79 °FSunny.3 mph61%29.89 "Hg10 mi
11:00 AM77 °FSunny.1 mph69%29.89 "Hg10 mi
10:00 AM72 °FSunny.3 mph78%29.92 "Hg10 mi
9:00 AM68 °FPassing clouds.No wind88%29.92 "Hg6 mi
8:00 AM64 °FScattered clouds.1 mph94%29.92 "Hg5 mi
7:00 AM63 °FClear.1 mph94%29.92 "Hg10 mi
6:00 AM61 °FPassing clouds.3 mph100%29.92 "Hg5 mi
5:00 AM64 °FClear.No wind88%29.92 "Hg10 mi
4:00 AM66 °FClear.6 mph88%29.92 "Hg10 mi
3:00 AM66 °FClear.6 mph94%29.92 "Hg10 mi
2:00 AM66 °FClear.3 mph94%29.92 "Hg10 mi
1:00 AM70 °FClear.3 mph83%29.92 "Hg10 mi
12:00 AM68 °FClear.3 mph88%29.92 "Hg10 mi
11:00 PM
Aug 26
72 °FClear.No wind78%29.92 "Hg10 mi
10:00 PM70 °FClear.3 mph83%29.92 "Hg10 mi
9:00 PM72 °FSunny.6 mph83%29.92 "Hg10 mi
8:00 PM79 °FSunny.1 mph61%29.92 "Hg10 mi
7:00 PM82 °FPassing clouds.6 mph55%29.89 "HgN/A
6:00 PM82 °FPassing clouds.3 mph55%29.92 "HgN/A
Weather by CustomWeather, © 2014

See weather overviewHow to use our weather pages